Free Severe Weather Alerts by Email and Text Message   

 
Follow iAlert.com on twitter @ialertcom
Search For Active Alerts in Your Area  
  Hi Guest:  [ Sign-up / Services ] [ Login ]

Current weather by "City, St" or "zip code"  

 

Advertise Here

Hazardous Weather Conditions

No active alerts for PHILADELPHIA, PENNSYLVANIA

Current Conditions: PHILADELPHIA, PENNSYLVANIA

Fair


40.0 F

Last Updated on Dec 18 2018, 11:54 am EST
Humidity: 38%
Wind Speed: NW 18.4 G 27.6 mph
Barometer 30.10 in
Dewpoint: 16.0 F
Visibility: 10.00 mi
Precip: --
Heat Index: NA
Wind Chill: 31 F
Current conditions at:

Philadelphia, Northeast Philadelphia Airport, PA (KPNE)

Lat: 40.07 Lon: -75.013

Local Radar Image active severe weather and emergency alerts image image weather storm and storm spotter reports image weather observation monitoring service image
Local
Radar
Active
Alerts
Storm Reports Weather
Monitoring

Weather Alert Notification Services


ialert severe weather and emergency alerts by text message and email ialert daily weather forecast by email and text message service ialert real-time weather-observation monitoring and alert notification service ialert storm report monitoring alert notification

Observation History for PHILADELPHIA, PENNSYLVANIA


Time Wind
(mph)
Vis
(mi)
Weather Precip (in) Temperature (F) Relative
Humidity
Wind
Chill
(°F)
Heat
Index
(°F)
Pressure
Air Dwpt altimeter
(in)
sea level
(mb)
11:54 am EST NW 18.4 G 27.6 10.00 Fair -- 40.0 16.0 38% 31 NA 30.10 1019.4
10:54 am EST N 19.6 G 26.5 10.00 Fair -- 40.0 17.1 40% 31 NA 30.10 1019.4
9:54 am EST N 15.0 G 27.6 10.00 Fair -- 39.0 18.0 43% 31 NA 30.09 1019.1
8:54 am EST NW 17.3 G 24.2 10.00 Fair -- 37.0 19.0 48% 27 NA 30.07 1018.3
7:54 am EST N 13.8 10.00 Fair -- 36.0 18.0 48% 27 NA 30.04 1017.1
6:54 am EST NW 10.4 10.00 Fair -- 36.0 17.1 46% 28 NA 30.01 1016.2
5:54 am EST NW 17.3 G 31.1 10.00 Fair -- 37.0 17.1 44% 27 NA 29.99 1015.6
4:54 am EST NW 20.7 G 29.9 10.00 Fair and Breezy -- 38.0 17.1 43% 28 NA 29.96 1014.7
3:54 am EST NW 12.7 G 20.7 10.00 A Few Clouds -- 39.0 19.9 46% 31 NA 29.93 1013.5
2:54 am EST NW 16.1 G 29.9 10.00 Overcast -- 41.0 19.9 43% 33 NA 29.91 1012.7
1:54 am EST NW 15.0 G 21.9 10.00 Overcast -- 41.0 21.0 45% 33 NA 29.89 1012.2
12:54 am EST NW 10.4 G 18.4 10.00 Overcast -- 42.0 21.0 43% 36 NA 29.88 1011.8
11:54 pm EST NW 18.4 G 29.9 10.00 Overcast -- 42.0 21.9 45% 33 NA 29.88 1011.9
10:54 pm EST NW 11.5 G 19.6 10.00 Overcast -- 43.0 25.0 49% 37 NA 29.87 1011.4
9:54 pm EST NW 11.5 G 27.6 10.00 Overcast -- 44.0 24.1 45% 38 NA 29.87 1011.5
8:54 pm EST NW 17.3 G 24.2 10.00 Overcast -- 44.0 25.0 47% 36 NA 29.87 1011.5
7:54 pm EST NW 15.0 G 25.3 10.00 Overcast -- 44.0 25.0 47% 37 NA 29.87 1011.4
6:54 pm EST NW 12.7 G 23.0 10.00 Overcast -- 45.0 24.1 44% 39 NA 29.86 1011.2
5:54 pm EST NW 15.0 G 24.2 10.00 Overcast -- 46.0 25.0 44% 40 NA 29.84 1010.5
4:54 pm EST W 11.5 G 24.2 10.00 Overcast -- 47.0 26.1 44% 42 NA 29.81 1009.4
3:54 pm EST NW 18.4 G 29.9 10.00 Overcast -- 47.0 26.1 44% 40 NA 29.79 1008.8
2:54 pm EST NW 17.3 G 33.4 10.00 Overcast -- 48.0 27.0 44% 42 NA 29.77 1008.2
1:54 pm EST NW 13.8 G 21.9 10.00 Mostly Cloudy -- 48.0 30.9 52% 42 NA 29.76 1007.8
12:54 pm EST NW 15.0 G 29.9 10.00 Mostly Cloudy -- 48.0 32.0 54% 42 NA 29.77 1008.0

Regional Weather Observation:


Pottstown, Pottstown Limerick Airport, PA (KPTW)

Fair
38.0 F

Doylestown, Doylestown Airport, PA (KDYL)

Fair
36.0 F

Quakertown Airport, PA (KUKT)

Fair
34.0 F

Allentown Queen City Municipal Airport, PA (KXLL)

Fair
34.0 F

Reading, Reading Regional Airport, PA (KRDG)

Fair
39.0 F

Philadelphia, Philadelphia International Airport, PA (KPHL)

A Few Clouds
40.0 F

Advertise Here

Advertise Here